Wind_Speed
21 20 18 17 15 12 13 12 14 16 15 14 13 13 13 13 13 14 12 13 15 17 20 19 16 13 11 7 4 6 1 2 5 14 20 20 18 16 16 19 20 21 22 22 22
21 21 20 18 16 14 12 13 13 15 16 16 16 15 15 14 13 14 13 13 14 15 16 16 18 15 11 8 12 13 9 5 7 15 16 17 17 15 15 16 18 20 22 20 21
25 23 20 19 17 16 14 12 13 15 16 17 18 17 17 16 15 14 14 14 14 15 16 19 18 20 16 13 13 14 9 2 5 10 13 17 18 14 13 16 19 19 20 20 20
24 23 20 20 18 17 17 13 13 14 15 18 19 19 18 16 15 15 15 16 16 16 17 16 14 17 14 11 10 11 12 5 2 7 12 15 16 15 14 16 18 19 18 19 21
26 24 21 20 17 17 18 17 14 15 16 19 20 20 19 17 16 15 16 17 18 16 17 14 8 12 13 7 3 8 12 8 3 6 7 12 12 16 14 16 18 18 19 20 22
27 25 23 22 21 17 16 17 17 16 18 20 21 21 19 18 18 16 16 17 19 18 18 11 8 4 10 4 6 4 4 9 9 4 6 12 10 12 14 16 16 15 20 23 23
30 27 26 23 23 21 20 18 18 19 19 20 22 22 22 20 19 17 16 17 19 20 17 12 12 9 7 4 7 6 2 4 6 5 2 3 8 10 11 13 12 14 17 21 24
30 29 27 26 24 24 24 22 20 20 20 20 23 24 24 23 21 19 19 17 18 19 18 19 18 13 8 5 9 8 5 4 7 4 1 2 4 5 10 9 9 15 17 21 24
30 28 28 27 26 25 23 24 22 20 21 21 23 25 25 24 23 22 21 19 18 18 17 16 15 10 9 14 17 15 12 9 7 5 4 3 1 7 8 8 9 11 17 20 27
32 31 29 27 27 27 24 24 22 22 22 21 23 24 26 23 24 23 21 19 19 19 18 16 15 11 15 22 24 17 16 12 11 11 9 8 13 10 11 8 7 10 16 18 28
33 33 32 30 28 27 26 26 25 24 22 22 21 23 23 25 25 24 22 20 19 19 19 17 14 16 27 25 23 23 19 12 7 10 6 7 12 13 17 13 8 10 18 22 25
32 32 33 32 31 32 28 27 26 22 23 23 23 23 23 24 25 24 23 22 21 21 18 15 15 23 27 22 25 25 24 16 13 12 14 12 8 22 21 21 20 14 20 21 25
32 32 32 33 34 36 32 29 26 25 26 25 25 24 23 25 25 25 24 23 23 21 18 17 22 24 25 22 22 24 24 21 18 17 20 18 11 18 21 23 23 17 20 20 21
31 32 34 33 34 36 34 32 29 27 28 25 26 23 27 24 23 25 25 23 22 21 21 20 23 26 25 23 21 16 23 25 23 22 22 22 22 19 21 19 21 19 18 15 21
26 28 32 33 36 35 35 34 33 30 30 27 28 26 28 27 24 26 24 24 22 23 22 23 23 24 21 20 20 20 22 24 21 23 25 26 29 30 23 18 15 12 15 15 18
24 24 26 30 35 36 36 36 36 34 32 29 28 27 28 26 27 27 26 25 26 27 23 25 22 23 20 21 21 20 22 18 17 19 21 22 24 16 16 14 10 13 17 18 14
24 24 25 26 27 34 39 39 39 38 30 30 27 28 27 28 28 28 28 26 24 23 23 23 25 20 21 18 19 18 16 18 16 17 17 21 20 16 14 11 13 11 15 15 13
27 26 25 25 21 27 38 42 43 34 31 32 31 31 31 29 28 30 29 25 25 25 24 24 23 21 16 19 18 14 19 21 16 16 17 20 19 17 16 15 14 16 11 17 22
29 27 31 26 24 25 33 40 38 34 35 35 32 31 31 32 32 32 30 26 25 24 24 24 23 24 19 22 22 16 14 17 18 19 19 19 19 20 18 17 13 17 16 19 18
34 32 32 31 29 27 28 28 30 35 37 35 34 34 30 33 35 35 33 31 27 26 24 26 21 24 25 27 23 20 15 14 14 16 15 13 13 17 16 16 15 16 20 21 26
32 33 33 34 32 30 25 24 26 35 40 40 36 36 33 32 33 36 34 29 26 27 34 27 23 23 25 21 18 16 13 16 17 17 16 14 17 17 17 17 19 20 23 25 21
32 33 33 34 33 31 26 27 26 37 43 44 41 37 35 35 33 31 34 30 27 29 32 27 27 29 25 22 20 16 18 20 18 16 17 18 20 18 17 16 20 15 15 22 22
32 35 34 33 35 33 32 28 26 40 45 47 45 42 35 37 36 36 28 35 33 30 29 26 29 29 28 27 27 22 22 17 18 18 17 19 20 20 23 23 24 25 24 26 27
34 35 36 35 35 32 31 27 26 42 47 48 45 47 40 36 36 35 33 30 32 34 29 28 31 31 31 27 27 27 27 20 16 17 20 21 22 19 20 17 16 16 21 22 23
32 33 33 34 33 33 32 30 28 38 41 51 49 49 46 42 38 36 35 36 33 31 28 30 33 33 33 30 29 29 29 22 21 23 25 25 21 19 21 18 15 15 19 20 22
30 30 32 35 32 33 32 36 34 39 44 48 50 49 44 44 45 40 36 34 34 34 32 29 30 35 35 35 34 30 28 28 28 30 33 28 27 24 23 23 20 24 27 27 22
30 29 29 33 36 32 32 34 39 39 42 47 48 51 48 45 46 48 42 37 34 33 32 28 28 28 31 34 33 32 30 35 37 34 33 31 28 28 28 30 31 28 31 31 31
Wind_Direction
225 234 233 229 226 227 226 228 225 217 215 214 214 208 207 206 196 200 195 187 189 185 197 191 197 165 170 165 128 169 65 207 40 59 69 70 57 39 30 32 23 19 23 20 18
224 235 237 224 229 227 225 219 221 215 210 205 209 208 209 205 202 206 200 191 191 183 194 188 192 162 160 140 143 143 147 167 64 53 54 74 66 36 22 29 29 20 16 13 17
229 236 235 224 230 230 225 217 216 216 212 206 204 205 208 205 204 204 202 198 195 185 188 189 188 168 175 172 172 151 148 136 56 43 45 55 55 41 15 22 24 20 11 13 18
227 231 229 222 226 227 226 223 221 221 218 210 206 203 206 203 204 201 198 199 198 200 203 200 192 163 176 180 205 174 157 144 36 48 38 42 66 46 27 18 20 16 11 12 18
227 226 225 218 217 221 220 222 223 221 217 213 209 203 204 202 201 197 195 196 202 208 215 216 213 180 182 205 215 134 141 130 80 54 48 41 68 50 29 21 21 16 14 14 17
226 225 225 222 219 220 221 221 224 225 219 214 213 205 201 204 200 194 190 195 206 208 223 218 234 216 202 249 336 79 134 127 131 134 60 46 43 27 25 15 18 17 22 15 11
227 227 224 224 224 228 229 226 226 227 221 216 213 209 202 206 198 197 191 191 207 212 217 219 228 228 235 276 301 221 162 145 148 150 129 80 54 28 20 13 5 13 29 21 11
229 228 227 226 225 227 232 225 224 226 222 220 215 210 204 207 202 204 199 195 202 212 210 208 223 220 221 197 162 165 162 225 193 195 193 136 94 10 356 0 354 9 22 30 19
229 229 229 229 227 227 229 226 223 226 226 223 219 214 208 209 210 207 208 203 203 203 210 221 229 209 204 169 166 175 184 192 209 217 282 279 3 330 332 337 349 5 18 25 22
230 230 229 229 230 230 226 225 223 228 224 224 219 216 214 212 218 210 212 214 209 212 208 213 215 197 192 168 178 179 191 209 231 237 255 309 315 314 313 327 357 9 10 8 3
232 231 231 229 230 231 229 225 221 221 223 223 220 218 216 218 216 222 218 218 216 215 215 215 206 186 174 190 185 183 196 208 250 271 240 282 300 297 297 300 338 0 352 359 359
236 236 234 231 230 231 230 231 227 221 225 224 223 222 216 217 218 214 221 224 225 223 218 215 198 197 204 213 188 197 215 220 224 241 252 253 283 301 298 314 327 333 340 344 342
240 239 238 233 231 232 229 232 229 226 226 227 224 221 218 218 221 217 215 223 227 225 221 213 206 214 219 227 215 210 230 245 233 241 254 265 260 287 288 301 308 324 322 322 322
240 241 241 238 235 233 231 232 231 227 225 226 226 220 217 214 220 220 217 219 223 223 221 219 218 223 224 227 229 221 234 242 238 238 248 274 284 288 267 281 281 298 294 307 308
235 237 239 238 237 235 230 230 231 228 229 223 227 221 221 214 215 220 219 219 220 221 221 224 226 231 232 229 233 225 237 246 252 249 247 258 277 281 276 281 284 324 336 297 303
234 234 237 237 235 232 231 229 230 229 228 227 223 226 222 216 217 219 220 217 218 222 217 226 228 234 235 234 237 236 242 249 261 258 258 250 258 258 287 301 308 357 338 297 313
230 232 235 238 238 231 227 227 228 227 224 226 224 222 220 219 218 216 220 221 220 226 219 228 232 236 244 251 237 234 239 250 246 250 246 252 262 266 273 306 332 333 319 291 311
232 234 233 235 240 233 226 226 226 221 221 227 226 222 222 214 219 217 219 219 225 223 222 222 229 237 242 238 240 227 232 248 252 250 257 260 268 267 272 289 297 311 312 331 314
235 237 234 235 237 237 229 227 225 220 218 222 224 226 227 228 224 224 218 218 227 230 226 228 224 234 220 225 227 215 224 239 250 254 259 262 268 279 285 290 301 319 328 340 315
240 239 235 232 235 238 237 230 225 221 217 221 221 223 220 226 227 229 227 224 226 228 233 229 220 229 222 235 226 226 217 232 246 255 260 273 281 279 287 297 313 311 315 327 329
241 236 234 233 234 235 235 226 223 217 214 214 218 224 222 222 224 228 225 221 217 216 229 227 216 216 228 230 229 228 229 238 240 249 263 269 278 291 297 305 298 305 322 322 339
239 239 236 233 233 230 229 227 228 209 208 211 211 217 218 218 222 226 222 219 215 216 217 221 219 212 223 216 204 215 230 236 240 245 252 263 278 292 301 299 301 309 305 312 314
234 238 235 233 232 226 225 224 226 200 202 209 208 208 209 215 218 226 218 216 218 217 214 215 218 208 213 217 215 219 230 232 237 234 251 270 283 295 303 296 299 291 296 300 309
234 230 235 232 232 227 225 220 217 200 205 208 207 207 210 206 216 224 220 218 222 227 209 212 213 214 221 227 220 222 236 231 242 256 269 280 287 293 293 286 271 286 305 316 324
234 226 227 231 229 225 223 214 213 206 211 210 207 208 212 211 211 217 223 219 219 231 226 209 216 212 211 221 222 223 235 251 258 262 274 283 280 281 291 289 290 303 300 298 307
230 228 222 224 224 222 220 212 211 209 212 216 212 212 214 214 216 216 222 226 228 225 219 215 217 218 219 224 227 230 238 249 253 261 271 271 274 289 288 284 292 294 302 302 295
229 226 224 221 221 217 218 216 215 214 216 220 215 214 213 214 216 217 224 229 227 227 224 223 226 227 229 232 236 240 244 249 255 263 266 270 278 290 302 299 298 300 303 306 302
Height
5888 5890 5892 5893 5895 5897 5898 5899 5900 5902 5903 5903 5904 5905 5906 5909 5910 5912 5913 5914 5914 5916 5917 5920 5923 5926 5927 5927 5928 5927 5929 5927 5926 5926 5926 5924 5924 5925 5923 5920 5919 5917 5915 5912 5909
5885 5887 5889 5892 5893 5895 5896 5897 5899 5900 5901 5902 5904 5905 5906 5908 5910 5912 5913 5913 5914 5915 5917 5920 5921 5925 5927 5928 5928 5927 5928 5927 5927 5927 5927 5928 5927 5927 5925 5923 5921 5919 5917 5915 5911
5882 5884 5887 5889 5891 5893 5895 5896 5897 5899 5900 5901 5902 5904 5906 5908 5910 5912 5912 5914 5915 5916 5917 5917 5918 5923 5925 5927 5928 5927 5927 5927 5929 5929 5928 5928 5927 5929 5927 5925 5922 5920 5919 5917 5913
5880 5882 5884 5886 5889 5891 5892 5894 5895 5897 5899 5900 5902 5904 5906 5908 5911 5911 5911 5914 5915 5917 5917 5918 5918 5923 5924 5926 5927 5926 5926 5928 5929 5930 5929 5929 5929 5930 5927 5927 5925 5923 5921 5918 5913
5876 5879 5882 5884 5886 5888 5890 5892 5893 5895 5897 5898 5901 5903 5905 5907 5909 5910 5911 5913 5915 5917 5918 5919 5922 5924 5925 5927 5928 5928 5927 5928 5930 5931 5930 5930 5931 5932 5931 5928 5927 5924 5921 5918 5915
5872 5875 5878 5880 5883 5886 5887 5889 5891 5893 5895 5897 5899 5901 5903 5906 5908 5909 5911 5913 5915 5917 5918 5922 5923 5926 5926 5928 5929 5929 5927 5928 5930 5930 5930 5930 5932 5932 5933 5931 5929 5926 5921 5919 5917
5868 5871 5874 5877 5880 5883 5885 5887 5889 5891 5892 5894 5896 5899 5902 5904 5906 5909 5911 5912 5914 5917 5919 5921 5922 5924 5927 5929 5931 5929 5929 5929 5929 5932 5933 5932 5933 5933 5933 5932 5930 5928 5923 5921 5918
5864 5867 5870 5873 5876 5879 5882 5884 5886 5888 5890 5892 5894 5897 5900 5902 5904 5907 5910 5912 5914 5916 5919 5919 5920 5922 5925 5927 5929 5928 5929 5929 5931 5931 5932 5933 5933 5934 5934 5932 5930 5928 5925 5922 5921
5859 5862 5865 5869 5871 5874 5877 5880 5883 5885 5887 5890 5892 5895 5898 5900 5903 5906 5908 5911 5913 5915 5917 5919 5920 5922 5924 5925 5927 5927 5928 5929 5930 5930 5930 5931 5931 5931 5932 5932 5929 5927 5925 5923 5921
5854 5858 5860 5864 5867 5870 5873 5876 5879 5881 5884 5886 5889 5894 5896 5899 5901 5904 5906 5909 5912 5914 5916 5918 5920 5922 5923 5924 5925 5926 5927 5928 5929 5931 5929 5928 5929 5929 5930 5930 5929 5926 5924 5921 5920
5849 5852 5855 5858 5862 5864 5869 5871 5875 5879 5881 5884 5887 5889 5892 5895 5898 5901 5904 5907 5910 5912 5914 5916 5921 5922 5921 5921 5923 5925 5926 5926 5927 5928 5928 5928 5928 5927 5926 5927 5926 5925 5923 5921 5919
5842 5845 5849 5852 5856 5858 5863 5866 5871 5877 5879 5882 5884 5887 5889 5892 5894 5897 5901 5905 5907 5909 5912 5916 5919 5918 5918 5920 5922 5924 5924 5925 5925 5926 5926 5926 5927 5922 5922 5923 5923 5922 5921 5919 5917
5834 5838 5842 5846 5849 5852 5858 5862 5867 5871 5874 5877 5879 5884 5886 5890 5891 5895 5898 5901 5904 5907 5909 5912 5914 5914 5916 5918 5921 5922 5923 5923 5923 5923 5923 5924 5927 5924 5922 5921 5921 5921 5919 5918 5916
5827 5831 5834 5838 5844 5846 5853 5857 5860 5864 5867 5874 5875 5880 5883 5886 5889 5891 5894 5898 5901 5903 5905 5908 5910 5911 5912 5915 5918 5921 5921 5920 5920 5922 5922 5922 5923 5923 5924 5922 5921 5921 5918 5916 5913
5821 5824 5827 5831 5835 5841 5847 5850 5853 5859 5862 5869 5870 5874 5878 5883 5885 5887 5889 5893 5897 5899 5903 5905 5906 5908 5911 5913 5916 5918 5916 5917 5918 5920 5920 5922 5920 5920 5919 5919 5919 5917 5914 5914 5912
5816 5819 5821 5824 5827 5833 5838 5842 5847 5853 5856 5861 5865 5869 5873 5878 5880 5883 5886 5890 5892 5895 5899 5900 5903 5906 5908 5911 5912 5913 5914 5914 5917 5917 5918 5917 5917 5917 5915 5914 5915 5913 5913 5911 5910
5810 5813 5815 5818 5821 5825 5829 5834 5840 5843 5854 5856 5860 5863 5867 5872 5875 5879 5883 5886 5890 5892 5896 5897 5900 5902 5906 5910 5909 5910 5911 5911 5913 5913 5914 5913 5913 5913 5913 5913 5913 5912 5911 5909 5906
5805 5808 5810 5812 5817 5818 5821 5825 5830 5842 5847 5849 5853 5858 5861 5864 5869 5873 5877 5882 5884 5887 5891 5894 5897 5899 5903 5904 5904 5906 5907 5907 5908 5910 5910 5908 5910 5911 5911 5911 5913 5912 5910 5910 5906
5799 5802 5804 5808 5810 5812 5814 5816 5826 5836 5839 5843 5848 5852 5857 5861 5864 5867 5872 5877 5880 5884 5887 5891 5894 5895 5899 5899 5901 5901 5904 5904 5904 5906 5907 5908 5908 5908 5908 5907 5909 5910 5910 5908 5905
5792 5795 5798 5801 5804 5806 5809 5816 5822 5828 5833 5837 5841 5845 5851 5854 5858 5862 5867 5872 5876 5880 5882 5886 5889 5891 5893 5895 5897 5899 5900 5901 5902 5903 5904 5905 5905 5903 5905 5905 5905 5907 5907 5904 5901
5785 5788 5790 5794 5797 5801 5806 5812 5815 5819 5824 5830 5835 5838 5845 5848 5852 5855 5861 5866 5870 5873 5877 5881 5884 5887 5889 5893 5896 5896 5896 5897 5899 5900 5900 5902 5902 5901 5901 5901 5902 5902 5901 5897 5896
5777 5781 5783 5787 5791 5795 5800 5803 5806 5810 5815 5821 5828 5832 5837 5842 5847 5850 5855 5861 5864 5867 5870 5875 5878 5882 5886 5889 5891 5891 5892 5893 5894 5898 5897 5899 5900 5899 5900 5898 5898 5898 5894 5893 5893
5769 5772 5776 5779 5783 5787 5790 5795 5798 5802 5807 5812 5820 5826 5832 5838 5842 5845 5850 5855 5858 5861 5865 5869 5872 5878 5880 5884 5886 5887 5889 5891 5892 5893 5895 5896 5897 5897 5897 5896 5894 5893 5890 5889 5889
5761 5765 5769 5772 5776 5782 5786 5792 5795 5796 5800 5806 5815 5820 5826 5832 5835 5840 5845 5850 5854 5857 5861 5864 5867 5872 5876 5881 5882 5885 5886 5889 5890 5892 5891 5892 5893 5895 5893 5893 5891 5889 5887 5886 5887
5753 5757 5759 5763 5770 5775 5781 5788 5791 5794 5797 5801 5807 5813 5820 5828 5830 5835 5840 5845 5850 5854 5857 5859 5863 5868 5873 5876 5878 5881 5884 5884 5886 5887 5887 5889 5889 5891 5890 5890 5891 5890 5888 5887 5884
5746 5749 5751 5756 5762 5768 5774 5779 5784 5787 5791 5796 5803 5808 5814 5822 5828 5832 5835 5840 5845 5849 5853 5856 5859 5864 5868 5871 5875 5877 5879 5881 5881 5882 5882 5883 5885 5886 5886 5886 5886 5885 5882 5879 5876
5738 5742 5744 5749 5756 5762 5768 5773 5778 5783 5788 5789 5794 5802 5808 5815 5820 5826 5831 5835 5840 5845 5849 5854 5856 5860 5863 5866 5869 5873 5874 5875 5875 5875 5877 5878 5881 5881 5882 5881 5879 5878 5876 5873 5870